Location: Usti nad Labem
(50.6670°N, 14.0330°E)
Time: 00:53:34
(UTC+02:00)

ISS - Visible Passes

Search period start: 02 October 2020 00:00
Search period end: 12 October 2020 00:00
Orbit: 419 x 421 km, 51.6° (Epoch: 02 October)

Date Brightness Start Highest point End Pass type
(mag) Time Alt. Az. Time Alt. Az. Time Alt. Az.
02 Oct -2.8 20:19:04 10° W 20:22:15 40° SSW 20:23:18 30° SSE visible
03 Oct -3.2 19:31:43 10° WNW 19:35:02 54° SSW 19:37:58 13° SE visible
03 Oct -1.0 21:09:30 10° WSW 21:10:57 14° SW 21:10:57 14° SW visible
04 Oct -1.6 20:21:40 10° W 20:24:13 20° SW 20:25:41 15° S visible
05 Oct -2.0 19:34:06 10° W 19:37:03 28° SSW 19:39:59 10° SSE visible
07 Oct -0.9 19:37:05 10° WSW 19:38:51 14° SW 19:40:36 10° S visible
